Location: Waco, TX
(31.5480°N, 97.1670°W)
Time: 03:03:53
(UTC-05:00)

ISS - Pass Details

Date: 22 September 2017
Orbit: 401 x 407 km, 51.6° (Epoch: 22 September)

Event Time Altitude Azimuth Distance (km) Brightness Sun altitude
Rises 06:23:13 0° 300° (WNW) 2,325 - -12.3°
Reaches altitude 10° 06:25:35 10° 285° (WNW) 1,462 - -11.8°
Exits shadow 06:27:08 19° 260° (W) 1,047 -2.4 -11.4°
Maximum altitude 06:28:12 22° 232° (SW) 941 -2.5 -11.2°
Drops below altitude 10° 06:30:47 10° 179° (S) 1,454 -1.1 -10.7°
Sets 06:33:09 0° 163° (SSE) 2,309 0.1 -10.2°
